Location: Newark
(45.5000°N, 11.4167°E)
Time: 13:00:36
(UTC+00:00)

Explorer 11/Cluster Stage 4 - Pass Details

Date: 28 August 2019
Orbit: 467 x 1260 km, 28.8° (Epoch: 15 September)

Event Time Altitude Azimuth Distance (km) Brightness Sun altitude
Rises 08:41:30 0° 232° (SW) 3,845 10.0 41.4°
Reaches altitude 10° 08:44:50 10° 218° (SW) 3,005 9.7 41.9°
Maximum altitude 08:50:17 22° 172° (S) 2,386 9.9 42.6°
Drops below altitude 10° 08:56:06 10° 126° (SE) 3,223 10.8 43.4°
Sets 08:59:49 0° 113° (ESE) 4,199 11.0 43.9°
